Location: Dittelbrunn
(50.0738°N, 10.2196°E)
Time: 17:01:37
(UTC+00:00)

Cosmos 2369 Rocket - Pass Details

Date: 18 September 2020
Orbit: 827 x 854 km, 71.0° (Epoch: 30 October)

Event Time Altitude Azimuth Distance (km) Brightness Sun altitude
Exits shadow 22:59:47 19° 41° (NE) 1,915 4.4 -38.5°
Drops below altitude 10° 23:01:20 10° 36° (NE) 2,468 5.1 -38.5°
Sets 23:03:50 0° 32° (NNE) 3,411 6.0 -38.5°
